Seatac, Washington, United States
Lat: 47.45N, Lon: 122.32W
Wx Zone: WAZ508
Local Info
Past Weather Observations for Today

NOTE: This archive is for the closest National Weather Service station to Seatac. Information may differ from the station used for current weather conditions.

Click here for Long-term Archive

Time Weather Temperature Dewpoint Humidity Pressure Winds Precip Visibility
18:53
Partly Cloudy
46°F / 8°C 39°F / 4°C 76% 30.27 in
(1025 mb)
S 6.9 mph
(S 11 kph)
- 10SM
17:53
Partly Cloudy
46°F / 8°C 39°F / 4°C 76% 30.24 in
(1024 mb)
SSE 5.8 mph
(SSE 9 kph)
- 10SM
16:53
Partly Cloudy
48°F / 9°C 39°F / 4°C 71% 30.21 in
(1023 mb)
SW 8.1 mph
(SW 13 kph)
- 10SM
15:53
Partly Cloudy
52°F / 11°C 41°F / 5°C 67% 30.18 in
(1022 mb)
SW 10.4 mph
(SW 17 kph)
- 10SM
14:53
Mostly Cloudy
54°F / 12°C 41°F / 5°C 63% 30.18 in
(1022 mb)
SW 11.5 mph
(SW 19 kph)
- 10SM
13:53
Partly Cloudy
54°F / 12°C 45°F / 7°C 72% 30.15 in
(1021 mb)
SW 6.9 mph
(SW 11 kph)
- 10SM
12:53
Mostly Cloudy
54°F / 12°C 45°F / 7°C 72% 30.12 in
(1020 mb)
SW 13.8 mph
(SW 22 kph)
- 10SM
11:53
Mostly Cloudy
52°F / 11°C 46°F / 8°C 82% 30.12 in
(1020 mb)
SW 8.1 mph
(SW 13 kph)
- 10SM
10:53
Overcast
50°F / 10°C 45°F / 7°C 82% 30.12 in
(1020 mb)
S 13.8 mph
(S 22 kph)
- 10SM
10:03
Overcast
48°F / 9°C 45°F / 7°C 87% 30.09 in
(1019 mb)
SSE 15 mph
(SSE 24 kph)
- 10SM
09:53
Overcast
48°F / 9°C 45°F / 7°C 87% 30.09 in
(1019 mb)
SW 16.1 mph
(SW 26 kph)
- 10SM
09:09
Mostly Cloudy
48°F / 9°C 45°F / 7°C 87% 30.09 in
(1019 mb)
S 19.6 mph
(S 32 kph)
- 10SM
08:53
Mostly Cloudy
48°F / 9°C 45°F / 7°C 87% 30.09 in
(1019 mb)
S 18.4 mph
(S 30 kph)
0.12 in
(3.05 mm)
10SM
08:16
Mostly Cloudy
Rain
48°F / 9°C 45°F / 7°C 87% 30.09 in
(1019 mb)
SSE 17.3 mph
(SSE 28 kph)
0.11 in
(2.79 mm)
5SM
07:53
Overcast
Rain
48°F / 9°C 45°F / 7°C 87% 30.09 in
(1019 mb)
SSE 21.9 mph
(SSE 35 kph)
0.26 in
(6.60 mm)
4SM
07:41
Overcast
Rain
48°F / 9°C 45°F / 7°C 87% 30.09 in
(1019 mb)
SSE 23 mph
(SSE 37 kph)
0.20 in
(5.08 mm)
4SM
06:53
Overcast
Light Rain
48°F / 9°C 43°F / 6°C 82% 30.09 in
(1019 mb)
S 16.1 mph
(S 26 kph)
0.01 in
(0.25 mm)
10SM
05:53
Overcast
48°F / 9°C 43°F / 6°C 82% 30.09 in
(1019 mb)
S 15 mph
(S 24 kph)
- 10SM
05:46
Overcast
48°F / 9°C 43°F / 6°C 82% 30.09 in
(1019 mb)
S 13.8 mph
(S 22 kph)
- 10SM
04:53
Overcast
48°F / 9°C 43°F / 6°C 82% 30.12 in
(1020 mb)
S 16.1 mph
(S 26 kph)
0.01 in
(0.25 mm)
10SM
03:53
Overcast
Light Rain
46°F / 8°C 43°F / 6°C 87% 30.15 in
(1021 mb)
S 11.5 mph
(S 19 kph)
0.01 in
(0.25 mm)
7SM
02:53
Overcast
Light Rain
46°F / 8°C 43°F / 6°C 87% 30.15 in
(1021 mb)
S 17.3 mph
(S 28 kph)
0.03 in
(0.76 mm)
10SM
02:21
Overcast
46°F / 8°C 43°F / 6°C 87% 30.15 in
(1021 mb)
S 12.7 mph
(S 20 kph)
0.01 in
(0.25 mm)
10SM
01:53
Overcast
Light Rain
46°F / 8°C 45°F / 7°C 93% 30.15 in
(1021 mb)
S 13.8 mph
(S 22 kph)
0.03 in
(0.76 mm)
6SM
01:23
Overcast
46°F / 8°C 43°F / 6°C 87% 30.15 in
(1021 mb)
S 13.8 mph
(S 22 kph)
0.00 in
(0.00 mm)
10SM
00:53
Mostly Cloudy
46°F / 8°C 43°F / 6°C 87% 30.15 in
(1021 mb)
S 12.7 mph
(S 20 kph)
- 10SM
Time Weather Temperature Dewpoint Humidity Pressure Winds Precip Visibility


Weather for websites

WeatherForYou.com, LLC is not responsible for any damages or problems caused by this service. Current weather conditions are obtained from the closest station including government and personal stations which may have varying degrees of accuracy. Weather forecasts are derived from the NOAA NDFD. Like all things, this site belongs to Jesus Christ... He just trusts me to maintain it. If you have any questions or comments email webmaster@weatherforyou.com

Copyright © 2014, WeatherForYou.com LLC. All rights reserved.